Other Public Products
Issued by NWS Charleston, SC

Home | Current Version | Previous Version | Text Only | Print | Product List | Glossary On
Versions: 1 2 3 4 5 6 7 8 9 10 11 12 13 14 15 16 17 18 19 20 21 22 23 24 25 26 27 28 29 30 31 32 33 34 35 36 37 38 39 40 41 42 43 44 45 46 47 48 49 50
000
FPUS82 KCHS 240227
OPUCHS

TEST...KCHS/KSAV Gateway Observations...TEST
National Weather Service Charleston SC
1000 PM EDT THU MAR 23 2017

NOTE: "fair" indicates few or no clouds below 12,000 feet with no
significant weather and/or obstructions to visibility.

SCZ050-WAZ558-NCZ071-TXZ119-213-PAZ071-DCZ001-FLZ074-172-MI076-
NYZ176-178-MAZ016-IL014-TNZ027-NJZ106-GAZ044-MD014-240300-

...Gateway Observations for Charleston International...

CITY           SKY/WX    TMP DP  RH WIND       PRES   REMARKS
Chas Airport   CLEAR     50  39  66 NE8       30.49S
Seattle        CLOUDY    53  35  50 SW8       29.92S
Charlotte      PTCLDY    52  23  32 SE9       30.48R
Dallas DFW     PTCLDY    78  43  28 S24G41    29.86R
Dallas Love    PTCLDY    78  44  29 S24G31    29.88F
Philladelphia  CLEAR     38  15  39 S5        30.59R WCI  34
Wash National  PTCLDY    42  19  39 S9        30.54R
Baltimore      CLEAR     36  21  54 E3        30.54R
Miami          TSTM      69  64  84 N5        30.22F
Detroit        CLOUDY    38  22  52 SE7       30.25F WCI  33
Newark         PTCLDY    40   2  20 N3        30.56R
Laguardia      CLEAR     40  21  46 S8        30.56R WCI  34
J F K          PTCLDY    36  26  67 S10       30.58R WCI  28
Boston Logan   CLEAR     34   4  28 W8        30.53R WCI  27
Ft. Lauderdale CLOUDY    71  65  81 NE17G28   30.22R
Chicago O`Hare CLOUDY    47  33  58 S14       30.02F
Chicago Midway CLOUDY    49  32  52 SE14G21   30.04F
Houston Bush   MOCLDY    71  61  70 S12       30.05R
Houston Hobby  PTCLDY    70  62  76 SE10      30.05S
Nashville      CLEAR     64  44  48 SE9       30.23R
Atlanta        CLOUDY    60  38  43 SE12      30.40R

$$

GAZ044-118-TXZ119-213-NCZ071-DCZ001-MDZ014-506-PAZ021-071-NJZ106-
NYZ176-178-MAZ106-OHZ011-021-055-MIZ076-KYZ091-ILZ014-INZ047-
MNZ060-ONZ431-240300-

...Gateway Observations for Savannah International...

CITY           SKY/WX    TMP DP  RH WIND       PRES   REMARKS
Savannah Arpt  CLEAR     54  44  69 E9        30.46S
Atlanta        CLOUDY    60  38  43 SE12      30.40R
Charlotte      PTCLDY    52  23  32 SE9       30.48R
Dallas DFW     PTCLDY    78  43  28 S24G41    29.86R
Houston Bush   MOCLDY    71  61  70 S12       30.05R
Wash National  PTCLDY    42  19  39 S9        30.54R
Wash Dulles    CLEAR     40  14  34 S8        30.51R WCI  34
Baltimore      CLEAR     36  21  54 E3        30.54R
Philadelphia   CLEAR     38  15  39 S5        30.59R WCI  34
Newark         PTCLDY    40   2  20 N3        30.56R
Laguardia      CLEAR     40  21  46 S8        30.56R WCI  34
J F K          PTCLDY    36  26  67 S10       30.58R WCI  28
Boston         CLEAR     34   4  28 W8        30.53R WCI  27
Pittsburg      PTCLDY    43   5  20 E5        30.32F
Akron          PTCLDY    42  10  27 SE10      30.27F
Cleveland      MOCLDY    44  10  25 S9        30.27F
Cincinnati     CLOUDY    54  33  45 S8        30.22F
Columbus       CLOUDY    46  23  41 SE3       30.24F
Detroit        CLOUDY    38  22  52 SE7       30.25F WCI  33
Chicago O`Hare CLOUDY    47  33  58 S14       30.02F
Minneapolis    CLOUDY    39  34  82 SE12      29.82F WCI  32
Indianapolis   PTCLDY    51  27  39 SE12      30.16F
Toronto Canada CLOUDY    32  19  59 SE10      30.36F WCI  24

$$




USA.gov is the U.S. government's official web portal to all federal, state and local government web resources and services.